• Join FlightAware (Why Join?)
  • Login
  • US Flag 
04:58AM EST


 

Airport Tracker/Info


-or-


 

Live Flight TrackerFlight Track Log ✈ N315CJ ✈ 17-Apr-2014 ✈ KYIP - KAPF

Flight Track Log - Related Links

Times and Time Zones

All times are in EDT time to prevent confusion due to time zone crossing. See the N315CJ flight status page for this flight to view local times or setup timezone preferences in your user account.

Time Position Orientation Groundspeed Altitude Reporting Facility
EDT Latitude Longitude Course Direction KTS MPH feet Rate Location/Type
05:40PM 42.2231 -83.5500 229° Southwest 177 204 1,500  Level Cleveland Center
05:41PM 42.1967 -83.5914 229° Southwest 155 178 3,600 1,980 Climbing Cleveland Center
05:42PM 42.1839 -83.6089 225° Southwest 163 188 4,500 2,220 Climbing Cleveland Center
05:42PM 42.1564 -83.6503 228° Southwest 230 265 5,900 2,760 Climbing Cleveland Center
05:43PM 42.1267 -83.6722 209° Southwest 224 258 7,400 2,760 Climbing Cleveland Center
05:43PM 42.0972 -83.6558 158° South 245 282 8,700 2,280 Climbing Cleveland Center
05:44PM 42.0661 -83.6314 150° Southeast 246 283 9,800 1,500 Climbing Cleveland Center
05:45PM 41.9903 -83.6092 168° South 293 337 11,200 1,740 Climbing Cleveland Center
05:46PM 41.9142 -83.6286 191° South 281 323 13,500 2,460 Climbing Cleveland Center
05:47PM 41.8381 -83.6478 191° South 281 323 16,400 2,640 Climbing Cleveland Center
05:48PM 41.7433 -83.6731 191° South 285 328 19,000 2,460 Climbing Cleveland Center
05:49PM 41.6633 -83.6950 192° South 289 333 21,500 2,460 Climbing Cleveland Center
05:50PM 41.5831 -83.7153 191° South 295 339 24,100 2,400 Climbing Cleveland Center
05:51PM 41.5019 -83.7358 191° South 295 339 26,500 2,160 Climbing Cleveland Center
05:52PM 41.4236 -83.7564 191° South 294 338 28,700 1,980 Climbing Cleveland Center
05:53PM 41.3425 -83.7769 191° South 292 336 30,600 1,920 Climbing Cleveland Center
05:54PM 41.2444 -83.8017 191° South 296 341 32,700 1,920 Climbing Cleveland Center
05:55PM 41.1642 -83.8219 191° South 297 342 34,600 1,680 Climbing Cleveland Center
05:56PM 41.0811 -83.8442 191° South 295 339 36,200 780 Climbing Cleveland Center
06:02PM 40.5832 -83.9696 191° South 355 409 40,000 660 Climbing FlightAware ADS-B
06:04PM 40.4485 -83.9984 178° South 353 406 41,300 900 Climbing FlightAware ADS-B
06:04PM 40.3900 -83.9901 172° South 351 404 41,800 1,020 Climbing FlightAware ADS-B
06:05PM 40.2689 -83.9680 172° South 336 387 43,100 960 Climbing FlightAware ADS-B
06:06PM 40.2072 -83.9563 172° South 326 375 43,800 660 Climbing FlightAware ADS-B
06:07PM 40.1603 -83.9475 172° South 326 375 44,000 480 Climbing FlightAware ADS-B
06:07PM 40.0963 -83.9356 172° South 326 375 44,400 540 Climbing FlightAware ADS-B
06:08PM 40.0491 -83.9269 172° South 326 375 44,700 480 Climbing FlightAware ADS-B
06:09PM 39.9846 -83.9150 172° South 324 373 45,000 240 Climbing FlightAware ADS-B
06:09PM 39.9389 -83.9065 172° South 332 382 45,000  Level FlightAware ADS-B
06:10PM 39.8911 -83.8975 172° South 338 389 45,000  Level FlightAware ADS-B
06:10PM 39.8322 -83.8866 172° South 345 397 45,000  Level FlightAware ADS-B
06:11PM 39.7661 -83.8745 172° South 354 407 45,000  Level FlightAware ADS-B
06:11PM 39.7177 -83.8655 172° South 360 414 45,000  Level FlightAware ADS-B
06:12PM 39.6624 -83.8553 172° South 366 421 45,000  Level FlightAware ADS-B
06:12PM 39.6093 -83.8455 172° South 371 427 45,000  Level FlightAware ADS-B
06:13PM 39.5460 -83.8338 172° South 377 434 45,000  Level FlightAware ADS-B
06:14PM 39.4656 -83.8191 172° South 383 441 45,000  Level FlightAware ADS-B
06:14PM 39.4143 -83.8097 172° South 386 444 45,000  Level FlightAware ADS-B
06:15PM 39.3616 -83.8001 172° South 389 448 45,000  Level FlightAware ADS-B
06:15PM 39.3095 -83.7905 172° South 392 451 45,000  Level FlightAware ADS-B
06:16PM 39.2393 -83.7777 172° South 395 455 45,000  Level FlightAware ADS-B
06:16PM 39.1833 -83.7675 172° South 397 457 45,000  Level FlightAware ADS-B
06:17PM 39.1128 -83.7548 172° South 397 457 45,000  Level FlightAware ADS-B
06:18PM 39.0301 -83.7397 172° South 397 457 45,000  Level FlightAware ADS-B
06:19PM 38.9546 -83.7261 172° South 395 455 45,000  Level FlightAware ADS-B
06:19PM 38.9007 -83.7165 172° South 393 452 45,000  Level FlightAware ADS-B
06:20PM 38.8101 -83.7001 172° South 391 450 45,000  Level FlightAware ADS-B
06:20PM 38.7461 -83.6886 172° South 390 449 45,000  Level FlightAware ADS-B
06:21PM 38.6944 -83.6793 172° South 390 449 45,000  Level FlightAware ADS-B
06:22PM 38.6240 -83.6667 172° South 390 449 45,000  Level FlightAware ADS-B
06:22PM 38.5678 -83.6566 172° South 390 449 45,000  Level FlightAware ADS-B
06:23PM 38.5179 -83.6476 172° South 390 449 45,000  Level FlightAware ADS-B
06:23PM 38.4624 -83.6378 172° South 390 449 45,000  Level FlightAware ADS-B
06:24PM 38.4057 -83.6278 172° South 390 449 45,000  Level FlightAware ADS-B
06:24PM 38.3322 -83.6147 172° South 390 449 45,000  Level FlightAware ADS-B
06:25PM 38.2798 -83.6054 172° South 391 450 45,000  Level FlightAware ADS-B
06:25PM 38.2082 -83.5928 172° South 392 451 45,000  Level FlightAware ADS-B
06:26PM 38.1552 -83.5834 172° South 392 451 45,000  Level FlightAware ADS-B
06:27PM 38.0998 -83.5736 172° South 393 452 45,000  Level FlightAware ADS-B
06:27PM 38.0462 -83.5642 172° South 393 452 45,000  Level FlightAware ADS-B
06:28PM 37.9822 -83.5529 172° South 391 450 45,000  Level FlightAware ADS-B
06:28PM 37.9142 -83.5411 172° South 390 449 45,000  Level Indianapolis Center
06:29PM 37.8075 -83.5228 172° South 389 448 45,000  Level Indianapolis Center
06:30PM 37.6997 -83.5039 172° South 389 448 45,000  Level Indianapolis Center
06:31PM 37.5931 -83.4844 172° South 389 448 45,000  Level Indianapolis Center
06:32PM 37.4683 -83.4636 172° South 389 448 45,000  Level Indianapolis Center
06:34PM 37.3600 -83.4442 172° South 389 448 45,000  Level Indianapolis Center
06:35PM 37.2531 -83.4272 173° South 389 448 45,000  Level Indianapolis Center
06:36PM 37.1467 -83.4075 172° South 389 448 45,000  Level Indianapolis Center
06:37PM 37.0411 -83.3897 172° South 388 447 45,000  Level Indianapolis Center
06:38PM 36.9181 -83.3689 172° South 387 445 45,000  Level Indianapolis Center
06:39PM 36.8125 -83.3508 172° South 387 445 45,000  Level Indianapolis Center
06:40PM 36.7069 -83.3319 172° South 387 445 45,000  Level Indianapolis Center
06:41PM 36.6006 -83.3147 173° South 386 444 45,000  Level Indianapolis Center
06:42PM 36.4761 -83.2936 172° South 387 445 45,000  Level Indianapolis Center
06:43PM 36.3689 -83.2758 172° South 387 445 45,000  Level Indianapolis Center
06:44PM 36.2611 -83.2569 172° South 388 447 45,000  Level Indianapolis Center
06:45PM 36.1542 -83.2392 172° South 388 447 45,000  Level Indianapolis Center
06:46PM 36.0431 -83.2247 174° South 391 450 45,000  Level Atlanta Center
06:47PM 35.9386 -83.2053 171° South 391 450 45,000  Level Atlanta Center
06:53PM 35.2611 -83.0915 172° South 387 445 45,000  Level FlightAware ADS-B (KDZJ)
06:54PM 35.1981 -83.0813 172° South 386 444 45,000  Level FlightAware ADS-B (KDZJ)
06:55PM 35.0770 -83.0615 172° South 378 435 45,000  Level FlightAware ADS-B (KDZJ)
06:55PM 35.0110 -83.0508 173° South 386 444 45,000  Level FlightAware ADS-B (KDZJ)
06:56PM 34.9394 -83.0391 172° South 386 444 45,000  Level FlightAware ADS-B (KDZJ)
06:57PM 34.8732 -83.0284 172° South 388 447 45,000  Level FlightAware ADS-B (KDZJ)
06:57PM 34.8032 -83.0171 173° South 389 448 45,000  Level FlightAware ADS-B (KDZJ)
06:58PM 34.6838 -82.9977 172° South 390 449 45,000  Level FlightAware ADS-B (KDZJ)
06:59PM 34.6233 -82.9880 172° South 392 451 45,000  Level FlightAware ADS-B (KDZJ)
07:00PM 34.5526 -82.9766 172° South 393 452 45,000  Level FlightAware ADS-B (KDZJ)
07:00PM 34.4692 -82.9633 172° South 393 452 45,000  Level FlightAware ADS-B (KDZJ)
07:01PM 34.4023 -82.9524 173° South 392 451 45,000  Level FlightAware ADS-B (KDZJ)
07:01PM 34.3482 -82.9439 173° South 393 452 45,000  Level FlightAware ADS-B (KDZJ)
07:02PM 34.2880 -82.9343 173° South 393 452 45,000  Level FlightAware ADS-B (KDZJ)
07:03PM 34.2192 -82.9233 173° South 397 457 45,000  Level Atlanta Center
07:04PM 34.1125 -82.9047 172° South 389 448 45,000  Level Atlanta Center
07:05PM 34.0017 -82.8886 173° South 394 453 45,000  Level Atlanta Center
07:06PM 33.8950 -82.8700 172° South 394 453 45,000  Level Atlanta Center
07:07PM 33.7864 -82.8542 173° South 394 453 45,000  Level Atlanta Center
07:08PM 33.6797 -82.8381 173° South 389 448 45,000  Level Atlanta Center
07:09PM 33.5711 -82.8222 173° South 389 448 45,000  Level Atlanta Center
07:10PM 33.4728 -82.8086 173° South 391 450 45,000  Level Atlanta Center
07:11PM 33.3706 -82.7903 171° South 386 444 45,000  Level Atlanta Center
07:12PM 33.2639 -82.7767 174° South 393 452 45,000  Level Atlanta Center
07:13PM 33.1572 -82.7608 173° South 387 445 45,000  Level Atlanta Center
07:14PM 33.0528 -82.7428 172° South 387 445 45,000  Level Atlanta Center
07:16PM 32.8450 -82.7097 172° South 391 450 45,000  Level Jacksonville Center
07:17PM 32.7281 -82.6925 173° South 385 443 45,000  Level Jacksonville Center
07:18PM 32.6236 -82.6756 172° South 385 443 45,000  Level Jacksonville Center
07:19PM 32.5211 -82.6611 173° South 385 443 45,000  Level Jacksonville Center
07:20PM 32.4169 -82.6417 171° South 385 443 45,000  Level Jacksonville Center
07:21PM 32.3103 -82.6247 172° South 385 443 45,000  Level Jacksonville Center
07:22PM 32.2039 -82.6103 173° South 391 450 45,000  Level Jacksonville Center
07:23PM 32.0953 -82.5908 171° South 391 450 45,000  Level Jacksonville Center
07:24PM 31.9992 -82.5789 174° South 391 450 45,000  Level Jacksonville Center
07:25PM 31.8906 -82.5622 173° South 391 450 45,000  Level Jacksonville Center
07:26PM 31.7819 -82.5431 171° South 391 450 45,000  Level Jacksonville Center
07:27PM 31.6753 -82.5264 172° South 391 450 45,000  Level Jacksonville Center
07:28PM 31.5689 -82.5122 174° South 386 444 45,000  Level Jacksonville Center
07:29PM 31.4622 -82.4883 169° South 391 450 45,000  Level Jacksonville Center
07:30PM 31.3578 -82.4644 169° South 391 450 45,000  Level Jacksonville Center
07:31PM 31.2594 -82.4333 165° South 381 438 45,000  Level Jacksonville Center
07:32PM 31.1550 -82.4047 167° South 381 438 45,000  Level Jacksonville Center
07:33PM 31.0525 -82.3736 165° South 381 438 45,000  Level Jacksonville Center
07:34PM 30.9503 -82.3475 168° South 381 438 45,000  Level Jacksonville Center
07:39PM 30.3687 -82.1827 167° South 380 437 45,000  Level FlightAware ADS-B (KMCO)
07:40PM 30.3171 -82.1685 167° South 380 437 45,000  Level FlightAware ADS-B (KMCO)
07:40PM 30.2814 -82.1587 166° South 380 437 45,000  Level FlightAware ADS-B (KMCO)
07:41PM 30.1822 -82.1316 169° South 377 434 45,000  Level FlightAware ADS-B (KMCO)
07:42PM 30.1121 -82.1181 170° South 375 432 45,000  Level FlightAware ADS-B (KMCO)
07:43PM 30.0443 -82.1042 170° South 376 433 45,000 -300 Level FlightAware ADS-B (KMCO)
07:43PM 29.9934 -82.0939 170° South 382 440 44,700 -600 Descending FlightAware ADS-B (KMCO)
07:44PM 29.9227 -82.0795 170° South 382 440 44,300 -720 Descending FlightAware ADS-B (KMCO)
07:44PM 29.8551 -82.0659 170° South 381 438 43,800 -1,320 Descending FlightAware ADS-B (KMCO)
07:45PM 29.7672 -82.0483 170° South 397 457 42,400 -1,920 Descending FlightAware ADS-B (KMCO)
07:46PM 29.7108 -82.0369 170° South 407 468 41,300 -2,220 Descending FlightAware ADS-B (KMCO)
07:46PM 29.6582 -82.0265 170° South 395 455 40,200 -2,100 Descending FlightAware ADS-B (KMCO)
07:47PM 29.6013 -82.0151 170° South 383 441 39,200 -2,040 Descending FlightAware ADS-B (KMCO)
07:48PM 29.4977 -81.9943 170° South 376 433 37,200 -2,040 Descending FlightAware ADS-B (KMCO)
07:48PM 29.4452 -81.9839 170° South 382 440 36,200 -1,800 Descending FlightAware ADS-B (KMCO)
07:49PM 29.3750 -81.9699 170° South 393 452 35,100 -1,080 Descending FlightAware ADS-B (KMCO)
07:49PM 29.3208 -81.9591 170° South 395 455 35,000 -120 Descending FlightAware ADS-B (KMCO)
07:50PM 29.2482 -81.9449 170° South 404 465 35,000  Level FlightAware ADS-B (KMCO)
07:51PM 29.1924 -81.9336 170° South 394 453 35,000  Level FlightAware ADS-B (KMCO)
07:51PM 29.1232 -81.9200 170° South 394 453 35,000  Level FlightAware ADS-B (KMCO)
07:52PM 29.0673 -81.9091 170° South 403 464 35,000  Level FlightAware ADS-B (KMCO)
07:52PM 28.9942 -81.8947 170° South 414 476 35,000 -780 Level FlightAware ADS-B (KMCO)
07:53PM 28.9176 -81.8795 170° South 419 482 34,000 -1,800 Descending FlightAware ADS-B (KMCO)
07:54PM 28.8590 -81.8681 170° South 420 483 32,900 -2,220 Descending FlightAware ADS-B (KMCO)
07:54PM 28.8039 -81.8573 170° South 419 482 31,800 -2,220 Descending FlightAware ADS-B (KMCO)
07:55PM 28.7303 -81.8427 170° South 406 467 30,400 -2,220 Descending FlightAware ADS-B (KMCO)
07:55PM 28.6712 -81.8310 170° South 405 466 29,300 -2,280 Descending FlightAware ADS-B (KMCO)
07:56PM 28.5973 -81.8164 170° South 406 467 27,800 -1,860 Descending FlightAware ADS-B (KMCO)
07:56PM 28.5422 -81.8043 165° South 393 452 27,100 -840 Descending FlightAware ADS-B (KMCO)
07:57PM 28.4932 -81.7897 166° South 395 455 27,000 -120 Descending FlightAware ADS-B (KMCO)
07:57PM 28.4362 -81.7736 166° South 398 458 27,000 -240 Level FlightAware ADS-B (KMCO)
07:58PM 28.3811 -81.7581 166° South 395 455 26,800 -900 Descending FlightAware ADS-B (KMCO)
07:59PM 28.3116 -81.7384 166° South 386 444 26,000 -1,320 Descending FlightAware ADS-B (KMCO)
07:59PM 28.2648 -81.7251 166° South 383 441 25,300 -1,320 Descending FlightAware ADS-B (KMCO)
08:00PM 28.1911 -81.7042 166° South 379 436 24,500 -1,200 Descending FlightAware ADS-B (KMCO)
08:00PM 28.1267 -81.6860 166° South 370 426 23,700 -1,320 Descending FlightAware ADS-B (KMCO)
08:01PM 28.0723 -81.6716 172° South 362 417 23,000 -1,320 Descending FlightAware ADS-B (KMCO)
08:02PM 28.0049 -81.6644 170° South 369 425 22,200 -1,200 Descending FlightAware ADS-B (KMCO)
08:02PM 27.9235 -81.6482 170° South 366 421 21,200 -900 Descending FlightAware ADS-B (KMCO)
08:03PM 27.8569 -81.6357 171° South 345 397 20,900 -180 Descending FlightAware ADS-B (KMCO)
08:04PM 27.7922 -81.6239 171° South 363 418 21,000 60 Climbing FlightAware ADS-B (KMCO)
08:04PM 27.7420 -81.6147 171° South 365 420 21,000  Level FlightAware ADS-B (KMCO)
08:05PM 27.6774 -81.6029 171° South 358 412 21,000  Level FlightAware ADS-B (KMCO)
08:06PM 27.6101 -81.5907 171° South 360 414 21,000  Level FlightAware ADS-B (KMCO)
08:06PM 27.5625 -81.5821 171° South 358 412 21,000  Level FlightAware ADS-B (KMCO)
08:07PM 27.4960 -81.5700 171° South 357 411 21,000  Level FlightAware ADS-B (KMCO)
08:07PM 27.4494 -81.5615 171° South 359 413 21,000  Level FlightAware ADS-B (KMCO)
08:08PM 27.3800 -81.5490 171° South 362 417 21,000  Level FlightAware ADS-B (KMCO)
08:09PM 27.3129 -81.5369 171° South 361 415 21,000  Level FlightAware ADS-B (KMCO)
08:09PM 27.2708 -81.5293 171° South 359 413 21,000  Level FlightAware ADS-B (KMCO)
08:10PM 27.2183 -81.5197 171° South 357 411 21,000 -300 Level FlightAware ADS-B (KMCO)
08:10PM 27.1551 -81.5083 171° South 323 372 20,700 -1,080 Descending FlightAware ADS-B (KMCO)
08:11PM 27.1131 -81.5009 171° South 341 392 19,800 -2,100 Descending FlightAware ADS-B (KMCO)
08:11PM 27.0610 -81.4915 171° South 333 383 18,600 -2,100 Descending FlightAware ADS-B (KMCO)
08:12PM 27.0040 -81.4776 161° South 317 365 17,400 -1,920 Descending FlightAware ADS-B (KMCO)
08:12PM 26.9626 -81.4580 156° South 316 364 16,400 -2,100 Descending FlightAware ADS-B (KMCO)
08:13PM 26.9111 -81.4327 156° South 299 344 15,000 -1,980 Descending FlightAware ADS-B (KMCO)
08:14PM 26.8730 -81.4137 156° South 294 338 14,100 -1,740 Descending FlightAware ADS-B (KMCO)
08:15PM 26.8243 -81.3895 183° South 290 334 12,500 -1,860 Descending FlightAware ADS-B (KMCO)
08:15PM 26.7587 -81.3886 186° South 284 327 11,400 -1,740 Descending FlightAware ADS-B (KMCO)
08:16PM 26.7053 -81.3933 186° South 283 326 10,300 -1,680 Descending Miami Center
08:17PM 26.6300 -81.3997 184° South 283 326 8,500 -1,800 Descending Miami Center
08:19PM 26.4656 -81.4146 194° South  Level FlightAware Approximate
08:26PM 26.1500 -81.7667 246° West  Level FlightAware Approximate
08:27PM 26.1524 -81.7756 246° West  Level Estimated
08:28PM 26.1524 -81.7756 246° West  Level Estimated
08:29PM 26.1524 -81.7756 246° West  Level Estimated
08:30PM 26.1524 -81.7756 246° West  Level Estimated
08:31PM 26.1524 -81.7756 246° West  Level Estimated
08:32PM 26.1524 -81.7756 246° West  Level Estimated
08:33PM 26.1524 -81.7756 246° West  Level Estimated
08:34PM 26.1524 -81.7756 246° West  Level Estimated
08:35PM 26.1524 -81.7756 246° West  Level Estimated
08:36PM 26.1524 -81.7756 246° West  Level Estimated
08:37PM 26.1524 -81.7756 246° West  Level Estimated
08:38PM 26.1524 -81.7756 246° West  Level Estimated
08:39PM 26.1524 -81.7756 246° West  Level Estimated
08:40PM 26.1524 -81.7756 246° West  Level Estimated